Вернуться в каталог

GLOBALSTAR M072

АктивенСвязьLEO
NORAD 31574·PAYLOAD·🇺🇸 United States

Запущен May 29, 2007 с Baikonur Cosmodrome

Loading…

Ближайшие Пролёты (ближайшие 24 часа)

TLE

СвежийSource: Space-Track

Эпоха: Sep 14, 2026, 15:49 UTC

1 31574U 07020D   26257.65937617 -.00000086  00000-0 -28527-4 0  9999
2 31574  51.9911 222.0455 0001322 105.9887  64.8249 11.91660083885643

Отслеживайте GLOBALSTAR M072 в реальном времени с AllMySat

Download on the App Store